2014 LN14

Initial reported observation by Pan-STARRS 1, Haleakala on 2014-06-02.
(Discoverer will be defined when the object is numbered. See this note on how discoverers are determined.)

Orbit

Orbit type: Amor
Near-Earth Object

Note: WebGL enabled browser required.

epoch2023-02-25.0
epoch JD2460000.5
perihelion date2021-01-29.07343
perihelion JD2459243.57343
argument of perihelion (°)336.59358
ascending node (°)337.83408
inclination (°)5.06619
eccentricity0.4288877
perihelion distance (AU)1.2382164
Tisserand w.r.t. Jupiter3.6
ΔV w.r.t. Earth (km/sec)6.8
semimajor axis (AU)2.1680786
mean anomaly (°)233.69266
mean daily motion (°/day)0.30873890
aphelion distance (AU)3.098
period (years)3.19
P-vector [x]0.70059372
P-vector [y]-0.63993330
P-vector [z]-0.31567992
Q-vector [x]0.71278216
Q-vector [y]0.60696296
Q-vector [z]0.35147909
absolute magnitude19.54
phase slope0.15
uncertainty1
referenceMPO 740452
observations used51
oppositions3
arc length (days)1058
first opposition used2014
last opposition used2017
residual rms (arc-secs)0.57
perturbers coarse indicatorM-v
perturbers precise indicator003Ek
first observation date used2014-04-28.0
last observation date used2017-03-21.0
computer nameBell
JD of orbit computation2457846.661484
perihelion JD uncertainty (days)4.7353E-05
argument of perihelion uncertainty (°)1.5862E-05
ascending node uncertainty (°)1.4733E-05
inclination uncertainty (°)1.5441E-06
eccentricity uncertainty 3.2451E-08
perihelion distance uncertainty (AU)5.8787E-08
Minimum Orbit Intersection Distances (in AU)
for orbit epoch: 2460000.5, reference: E2023-D73
Mercury0.81034
Venus0.5102
Earth0.22663
Mars0.08526
Jupiter2.21152
Saturn6.07799
Uranus15.4206
Neptune27.2745

Observations

56 total observations over interval: 2014 04 28.33313 – 2017 03 21.316470
These data are available for download (format description).

Date (UT) J2000 RA J2000 Dec Magn Location Ref
2014 04 28.33313 15 11 25.18 -28 48 01.3 20.7 V W84 – Cerro Tololo-DECam MPS 785562
2014 04 28.33650 15 11 24.95 -28 48 01.9   W84 – Cerro Tololo-DECam MPS 785562
2014 04 28.33986 15 11 24.74 -28 48 02.5   W84 – Cerro Tololo-DECam MPS 785562
2014 04 28.34315 15 11 24.52 -28 48 03.1   W84 – Cerro Tololo-DECam MPS 785562
2014 04 28.34643 15 11 24.31 -28 48 03.7   W84 – Cerro Tololo-DECam MPS 785562
2014 04 29.32302 15 10 23.16 -28 51 07.1 20.7 V W84 – Cerro Tololo-DECam MPS 785562
2014 04 29.32617 15 10 22.94 -28 51 07.7   W84 – Cerro Tololo-DECam MPS 785562
2014 04 29.32939 15 10 22.73 -28 51 08.2   W84 – Cerro Tololo-DECam MPS 785562
2014 04 29.33263 15 10 22.51 -28 51 08.7   W84 – Cerro Tololo-DECam MPS 785562
2014 04 29.33586 15 10 22.29 -28 51 09.2   W84 – Cerro Tololo-DECam MPS 785562
2014 05 02.34166 15 07 00.24 -28 59 09.8   W84 – Cerro Tololo-DECam MPS 785562
2014 05 02.34484 15 07 00.00 -28 59 10.2 20.6 V W84 – Cerro Tololo-DECam MPS 785562
2014 05 02.34803 15 06 59.77 -28 59 10.6   W84 – Cerro Tololo-DECam MPS 785562
2014 05 02.35121 15 06 59.54 -28 59 10.9   W84 – Cerro Tololo-DECam MPS 785562
2014 05 02.35440 15 06 59.30 -28 59 11.3   W84 – Cerro Tololo-DECam MPS 785562
2014 06 02.31640 14 24 58.953 -28 08 05.35 20.3 w F51 – Pan-STARRS 1, Haleakala MPS 518060
2014 06 02.32743 14 24 58.137 -28 08 02.24 20.3 w F51 – Pan-STARRS 1, Haleakala MPS 518060
2014 06 02.33846 14 24 57.314 -28 07 59.04 20.3 w F51 – Pan-STARRS 1, Haleakala MPS 518060
2014 06 02.34950 14 24 56.502 -28 07 55.71 20.2 w F51 – Pan-STARRS 1, Haleakala MPS 518060
2014 06 03.02595 14 24 11.89 -28 04 24.8 20.5 V 807 – Cerro Tololo Observatory, La Serena MPS 518060
2014 06 03.03057 14 24 11.55 -28 04 23.6 20.4 V 807 – Cerro Tololo Observatory, La Serena MPS 518060
2014 06 03.03520 14 24 11.22 -28 04 22.1 20.6 V 807 – Cerro Tololo Observatory, La Serena MPS 518060
2014 06 03.399276 14 23 46.667 -28 02 44.78 20.0 R 568 – Maunakea MPS 518060
2014 06 03.400530 14 23 46.577 -28 02 44.32   568 – Maunakea MPS 518060
2014 06 06.05896 14 21 04.66 -27 49 07.5 20.0 V 807 – Cerro Tololo Observatory, La Serena MPS 518060
2014 06 06.06357 14 21 04.38 -27 49 06.3 19.6 V 807 – Cerro Tololo Observatory, La Serena MPS 518060
2014 06 06.06817 14 21 04.08 -27 49 05.3 19.9 V 807 – Cerro Tololo Observatory, La Serena MPS 518060
2014 06 15.04041 14 14 38.62 -27 03 20.4 20.6 V 807 – Cerro Tololo Observatory, La Serena MPS 519420
2014 06 15.04356 14 14 38.52 -27 03 19.2 20.5 V 807 – Cerro Tololo Observatory, La Serena MPS 519420
2014 06 15.04672 14 14 38.42 -27 03 18.9 20.6 V 807 – Cerro Tololo Observatory, La Serena MPS 519420
2014 06 21.34147 14 12 55.54 -26 34 30.2 20.3 R 474 – Mount John Observatory, Lake Tekapo MPS 520095
2014 06 21.34711 14 12 55.48 -26 34 29.0 20.5 R 474 – Mount John Observatory, Lake Tekapo MPS 520095
2014 06 21.38509 14 12 55.16 -26 34 19.4 20.3 R 474 – Mount John Observatory, Lake Tekapo MPS 520095
2014 06 21.38861 14 12 55.13 -26 34 18.6 19.9 R 474 – Mount John Observatory, Lake Tekapo MPS 520095
2014 07 14.00961 14 27 13.25 -25 46 24.8 20.4 V 807 – Cerro Tololo Observatory, La Serena MPS 522827
2014 07 14.01740 14 27 13.85 -25 46 24.5 20.4 V 807 – Cerro Tololo Observatory, La Serena MPS 522827
2014 07 14.02516 14 27 14.42 -25 46 24.2 20.5 V 807 – Cerro Tololo Observatory, La Serena MPS 522827
2014 08 18.38019 15 47 07.02 -26 50 29.9 20.3 R 474 – Mount John Observatory, Lake Tekapo MPS 527136
2014 08 18.38335 15 47 07.59 -26 50 30.1 21.0 R 474 – Mount John Observatory, Lake Tekapo MPS 527136
2014 08 18.38687 15 47 08.21 -26 50 30.7 20.9 R 474 – Mount John Observatory, Lake Tekapo MPS 527136
2014 09 04.261161 16 45 32.119 -26 57 23.78 21.2 R 568 – Maunakea MPS 542362
2014 09 04.262304 16 45 32.374 -26 57 23.65 21.5 R 568 – Maunakea MPS 542362
2014 09 04.265144 16 45 33.008 -26 57 23.35 21.3 R 568 – Maunakea MPS 542362
2014 09 04.267367 16 45 33.484 -26 57 23.24 21.8 R 568 – Maunakea MPS 542362
2014 10 22.203966 19 59 01.683 -19 13 56.93 21.5 R 568 – Maunakea MPS 542362
2014 10 22.205877 19 59 02.124 -19 13 55.03 21.4 R 568 – Maunakea MPS 542362
2014 10 22.940953 20 01 52.135 -19 01 21.40   J04 – ESA Optical Ground Station, Tenerife MPS 540566
2014 10 22.947889 20 01 53.745 -19 01 14.59 20.5 R J04 – ESA Optical Ground Station, Tenerife MPS 540566
2014 10 22.954834 20 01 55.270 -19 01 06.58 21.1 R J04 – ESA Optical Ground Station, Tenerife MPS 540566
2014 10 23.01921 20 02 10.48 -18 59 51.7 21.6 V 807 – Cerro Tololo Observatory, La Serena MPS 540566
2014 10 23.02613 20 02 12.04 -18 59 44.7 21.6 V 807 – Cerro Tololo Observatory, La Serena MPS 540566
2014 10 23.03323 20 02 13.71 -18 59 36.7 21.5 V 807 – Cerro Tololo Observatory, La Serena MPS 540566
2016 02 11.475866 08 04 23.313 +24 20 25.72 24.76 G T12 – University of Hawaii 88-inch telescope, Maunak MPS 1201115
2017 03 21.314439 12 58 19.49 -11 19 29.2 22.5 R 705 – Apache Point MPS 778916
2017 03 21.315455 12 58 19.41 -11 19 29.0 22.1 R 705 – Apache Point MPS 778916
2017 03 21.316470 12 58 19.34 -11 19 28.9 22.1 R 705 – Apache Point MPS 778916